Zurück zum Katalog

XINGSHIDAI 8

AktivWissenschaftSSO
NORAD 44889·PAYLOAD·🇨🇳 China
Dieser Satellitenname wurde noch nicht durch offizielle Quellen bestätigt.

Gestartet Dec 20, 2019 von Taiyuan Satellite Launch Center

Loading…

Nächste Überflüge (nächste 24 Stunden)

TLE

AktuellSource: Space-Track

Epoche: Sep 14, 2026, 11:44 UTC

1 44889U 19093L   26257.48916529  .00001992  00000-0  18760-3 0  9997
2 44889  97.7494 334.6906 0013014 111.3987 248.8624 14.94913138365141

Verfolge XINGSHIDAI 8 in Echtzeit mit AllMySat

Download on the App Store